Preview of NWS' New Version of Forecast
This preview is not operational and should not be used for support decisions.

Regional Weather Roundup (RWR)

Issued by National Weather Service (NWS)

                            
000
ASUS46 KPQR 212110
RWROR 

OREGON REGIONAL WEATHER ROUNDUP
NATIONAL WEATHER SERVICE PORTLAND OR
200 PM PDT WED AUG 21 2019

NOTE: "FAIR" INDICATES FEW OR NO CLOUDS BELOW 12,000 FEET WITH
NO SIGNIFICANT WEATHER AND/OR OBSTRUCTIONS TO VISIBILITY.

ORZ001>013-212200-
NORTHWEST OREGON

  
CITY           SKY/WX    TMP DP  RH WIND       PRES   REMARKS
ASTORIA        LGT RAIN  63  61  93 SW14G30   29.98R FOG              
TILLAMOOK      DRIZZLE   64  63  94 SW6       30.02S                  
NEWPORT        RAIN      63  63 100 SW8       30.05S VSB 3/4          
FLORENCE       CLOUDY    66  61  82 CALM      30.03S                  
PORTLAND       CLOUDY    70  58  65 S8        30.01S                  
VANCOUVER WA   CLOUDY    69  57  65 VRB6      30.01S                  
SCAPPOOSE      CLOUDY    71  57  61 SE6       29.99F                  
HILLSBORO      CLOUDY    71  57  61 S10       30.00S                  
AURORA         CLOUDY    69  57  65 S9        30.02F                  
MCMINNVILLE    CLOUDY    69  58  67 S8        30.01S                  
SALEM          CLOUDY    64  58  80 S12       30.02S                  
CORVALLIS      CLOUDY    63  61  93 S9        30.04S                  
EUGENE         LGT RAIN  64  61  90 SW8       30.05F                  
CRESWELL       CLOUDY    63  63 100 CALM      30.04F FOG              
$$

ORZ021-028-212200-
SOUTHWEST OREGON

  
CITY           SKY/WX    TMP DP  RH WIND       PRES   REMARKS
NORTH BEND     LGT RAIN  64  63  94 S7        30.05S                  
BROOKINGS      HVY RAIN  63  61  93 W7        30.06R FOG              
ROSEBURG       LGT RAIN  64  64 100 CALM      30.07F                  
SEXTON SUMMIT  CLOUDY    58  57  97 S8        30.12S FOG              
GRANTS PASS    FAIR      63  57  82 CALM      30.10F                  
MEDFORD        LGT RAIN  63  57  81 NW12      30.07R                  
$$

ORZ014>016-041-212200-
COLUMBIA GORGE

  
CITY           SKY/WX    TMP DP  RH WIND       PRES   REMARKS
TROUTDALE      CLOUDY    66  61  84 NE7       30.02S                  
HOOD RIVER     CLOUDY    68  55  64 W14G23    29.96F                  
THE DALLES     CLOUDY    76  56  49 W21       29.92S                  
$$

ORZ029>031-041-044-049-050-061>064-502-503-505>511-212200-
EASTERN OREGON

  
CITY           SKY/WX    TMP DP  RH WIND       PRES   REMARKS
MADRAS         RAIN      61  52  72 SW12G17   30.05R                  
REDMOND        LGT RAIN  64  56  75 NW9       30.06R                  
BEND           DRIZZLE   63  57  82 W9        30.07R                  
PRINEVILLE     LGT RAIN  63  57  82 W7        30.07R                  
KLAMATH FALLS  CLOUDY    77  42  28 W14       30.08F                  
LAKEVIEW       CLOUDY    83  37  19 VRB7      30.08F                  
HERMISTON      PTSUNNY   87  46  24 W17G26    29.86F                  
PENDLETON      PTSUNNY   88  35  15 W21G28    29.89F                  
JOHN DAY       MOSUNNY   85  42  22 NW7       29.97F                  
MEACHAM        PTSUNNY   77  47  34 VRB5      30.02                   
LA GRANDE      PTSUNNY   88  51  28 NW12      29.92F                  
BAKER CITY     MOSUNNY   89  53  29 NW12      29.94F                  
BURNS          SUNNY     89  41  18 SW10      30.00F                  
ROME             N/A     92  32  12 CALM      29.96F                  
ONTARIO        MOSUNNY   96  48  19 E5        29.84F HX  92           
$$